N1024H KBUF-KROC

Flight info

Callsign N1024H
Flight time 0h 22m
Altitude 7000
Route KBUF CLUNG ZOFEB BIBAY KROC
Aircraft SR22/L-SGBRY/C

Departure

Time 2026-04-25 12:58
Airport Buffalo Niagara International Airport (KBUF)

Arrival

Time 2026-04-25 13:20
Airport Frederick Douglass Greater Rochester International Airport (KROC)
Time Latitude Longitude Altitude Speed Heading
2026-04-25 12:41 42.94589 -78.73351 694 ft 0 kts 217°
2026-04-25 12:45 42.94587 -78.73353 694 ft 2 kts 206°
2026-04-25 12:45 42.94608 -78.73487 694 ft 9 kts 236°
2026-04-25 12:46 42.94548 -78.73497 695 ft 11 kts 179°
2026-04-25 12:46 42.94456 -78.73502 698 ft 13 kts 178°
2026-04-25 12:46 42.94426 -78.73496 699 ft 0 kts 163°
2026-04-25 12:46 42.94397 -78.73497 700 ft 17 kts 171°
2026-04-25 12:47 42.94246 -78.73520 704 ft 14 kts 168°
2026-04-25 12:47 42.94161 -78.73399 703 ft 23 kts 130°
2026-04-25 12:47 42.94077 -78.73255 703 ft 0 kts 290°
2026-04-25 12:47 42.94051 -78.73292 703 ft 2 kts 160°
2026-04-25 12:48 42.94015 -78.73289 703 ft 11 kts 169°
2026-04-25 12:48 42.93912 -78.73286 703 ft 10 kts 179°
2026-04-25 12:48 42.93890 -78.73287 703 ft 11 kts 182°
2026-04-25 12:48 42.93774 -78.73254 701 ft 20 kts 140°
2026-04-25 12:49 42.93681 -78.73228 699 ft 20 kts 219°
2026-04-25 12:49 42.93544 -78.73410 694 ft 33 kts 224°
2026-04-25 12:49 42.93372 -78.73636 688 ft 34 kts 221°
2026-04-25 12:49 42.93184 -78.73878 682 ft 32 kts 222°
2026-04-25 12:50 42.93078 -78.73964 677 ft 0 kts 277°
2026-04-25 12:56 42.93088 -78.74063 676 ft 22 kts 282°
2026-04-25 12:56 42.93151 -78.74128 678 ft 0 kts 19°
2026-04-25 12:57 42.93162 -78.74116 679 ft 19 kts 39°
2026-04-25 12:57 42.93444 -78.73753 735 ft 79 kts 41°
2026-04-25 12:58 42.93919 -78.73199 982 ft 95 kts 43°
2026-04-25 12:58 42.94426 -78.72662 1415 ft 92 kts 45°
2026-04-25 12:58 42.94879 -78.72128 1874 ft 84 kts 51°
2026-04-25 12:58 42.95265 -78.71545 2235 ft 82 kts 69°
2026-04-25 12:59 42.95357 -78.70817 2617 ft 77 kts 92°
2026-04-25 12:59 42.95355 -78.70167 3011 ft 71 kts 94°
2026-04-25 12:59 42.95372 -78.69434 3237 ft 87 kts 93°
2026-04-25 12:59 42.95399 -78.68489 3408 ft 108 kts 93°
2026-04-25 13:00 42.95416 -78.67512 3846 ft 101 kts 96°
2026-04-25 13:00 42.95423 -78.66866 4048 ft 106 kts 93°
2026-04-25 13:00 42.95445 -78.65390 4206 ft 134 kts 93°
2026-04-25 13:00 42.95452 -78.64044 4364 ft 145 kts 93°
2026-04-25 13:01 42.95464 -78.62646 4570 ft 150 kts 92°
2026-04-25 13:01 42.95532 -78.61152 4589 ft 166 kts 78°
2026-04-25 13:01 42.95970 -78.59646 4615 ft 172 kts 72°
2026-04-25 13:01 42.96330 -78.58144 4857 ft 163 kts 76°
2026-04-25 13:02 42.96616 -78.56674 5132 ft 159 kts 77°
2026-04-25 13:02 42.96870 -78.55227 5406 ft 156 kts 80°
2026-04-25 13:02 42.97101 -78.53791 5685 ft 154 kts 80°
2026-04-25 13:02 42.97328 -78.52374 5957 ft 153 kts 80°
2026-04-25 13:03 42.97558 -78.50978 6232 ft 152 kts 76°
2026-04-25 13:03 42.97790 -78.49577 6503 ft 151 kts 76°
2026-04-25 13:03 42.98017 -78.48179 6767 ft 152 kts 76°
2026-04-25 13:03 42.98250 -78.46742 6914 ft 161 kts 76°
2026-04-25 13:04 42.98502 -78.45187 6912 ft 176 kts 75°
2026-04-25 13:04 42.98774 -78.43507 6929 ft 187 kts 76°
2026-04-25 13:04 42.99056 -78.41718 6905 ft 194 kts 76°
2026-04-25 13:04 42.99344 -78.39906 6913 ft 197 kts 76°
2026-04-25 13:05 42.99864 -78.38182 6917 ft 198 kts 57°
2026-04-25 13:05 43.00489 -78.36493 6914 ft 202 kts 64°
2026-04-25 13:05 43.01009 -78.34721 6905 ft 201 kts 69°
2026-04-25 13:05 43.01479 -78.32926 6908 ft 199 kts 70°
2026-04-25 13:06 43.01917 -78.31140 6904 ft 198 kts 70°
2026-04-25 13:06 43.02348 -78.29345 6905 ft 198 kts 71°
2026-04-25 13:06 43.02780 -78.27580 6919 ft 197 kts 71°
2026-04-25 13:06 43.03213 -78.25809 6887 ft 198 kts 71°
2026-04-25 13:07 43.03647 -78.24012 6849 ft 197 kts 71°
2026-04-25 13:07 43.04077 -78.22235 6772 ft 194 kts 71°
2026-04-25 13:07 43.04494 -78.20507 6654 ft 194 kts 71°
2026-04-25 13:07 43.04915 -78.18767 6429 ft 193 kts 71°
2026-04-25 13:08 43.05338 -78.17027 6176 ft 190 kts 72°
2026-04-25 13:08 43.05745 -78.15345 5871 ft 188 kts 72°
2026-04-25 13:08 43.06158 -78.13637 5560 ft 186 kts 73°
2026-04-25 13:08 43.06557 -78.11987 5258 ft 184 kts 73°
2026-04-25 13:09 43.06956 -78.10332 4950 ft 181 kts 75°
2026-04-25 13:09 43.07342 -78.08739 4646 ft 177 kts 75°
2026-04-25 13:09 43.07724 -78.07151 4340 ft 173 kts 76°
2026-04-25 13:09 43.08093 -78.05611 4037 ft 170 kts 77°
2026-04-25 13:10 43.08462 -78.04084 3730 ft 167 kts 78°
2026-04-25 13:10 43.08822 -78.02588 3428 ft 165 kts 79°
2026-04-25 13:10 43.09172 -78.01127 3120 ft 158 kts 79°
2026-04-25 13:10 43.09499 -77.99749 2949 ft 148 kts 77°
2026-04-25 13:11 43.09813 -77.98459 2940 ft 139 kts 78°
2026-04-25 13:11 43.10111 -77.97221 2936 ft 132 kts 78°
2026-04-25 13:11 43.10395 -77.96042 2939 ft 127 kts 79°
2026-04-25 13:11 43.10664 -77.94926 2942 ft 122 kts 80°
2026-04-25 13:12 43.10926 -77.93826 2949 ft 118 kts 80°
2026-04-25 13:12 43.11178 -77.92770 2954 ft 117 kts 80°
2026-04-25 13:12 43.11434 -77.91689 2960 ft 120 kts 79°
2026-04-25 13:12 43.11551 -77.90957 2956 ft 117 kts 90°
2026-04-25 13:13 43.11615 -77.89497 2954 ft 113 kts 94°
2026-04-25 13:13 43.11654 -77.88466 2940 ft 105 kts 95°
2026-04-25 13:13 43.11688 -77.87482 2908 ft 101 kts 95°
2026-04-25 13:13 43.11713 -77.86500 2768 ft 106 kts 94°
2026-04-25 13:14 43.11740 -77.85487 2623 ft 109 kts 95°
2026-04-25 13:14 43.11770 -77.84441 2467 ft 106 kts 95°
2026-04-25 13:14 43.11797 -77.83469 2299 ft 99 kts 94°
2026-04-25 13:14 43.11826 -77.82569 2133 ft 90 kts 94°
2026-04-25 13:15 43.11852 -77.81754 1961 ft 81 kts 94°
2026-04-25 13:15 43.11876 -77.80979 1803 ft 79 kts 94°
2026-04-25 13:15 43.11897 -77.80237 1663 ft 75 kts 93°
2026-04-25 13:15 43.11919 -77.79517 1695 ft 79 kts 92°
2026-04-25 13:16 43.11944 -77.78725 1696 ft 90 kts 91°
2026-04-25 13:16 43.11972 -77.77863 1659 ft 89 kts 94°
2026-04-25 13:16 43.11995 -77.77035 1658 ft 84 kts 93°
2026-04-25 13:16 43.12015 -77.76251 1644 ft 80 kts 93°
2026-04-25 13:17 43.12036 -77.75498 1601 ft 81 kts 94°
2026-04-25 13:17 43.12059 -77.74743 1503 ft 78 kts 93°
2026-04-25 13:17 43.12080 -77.74015 1400 ft 77 kts 91°
2026-04-25 13:17 43.12104 -77.73270 1317 ft 77 kts 92°
2026-04-25 13:18 43.12125 -77.72540 1205 ft 76 kts 91°
2026-04-25 13:18 43.12153 -77.71826 1145 ft 75 kts 90°
2026-04-25 13:18 43.12170 -77.71115 1070 ft 74 kts 90°
2026-04-25 13:18 43.12190 -77.70408 947 ft 70 kts 90°
2026-04-25 13:19 43.12210 -77.69765 858 ft 69 kts 89°
2026-04-25 13:19 43.12225 -77.69090 805 ft 72 kts 88°
2026-04-25 13:19 43.12259 -77.68428 721 ft 68 kts 90°
2026-04-25 13:19 43.12267 -77.67989 645 ft 69 kts 89°
2026-04-25 13:20 43.12291 -77.67194 556 ft 52 kts 87°
2026-04-25 13:20 43.12311 -77.66756 551 ft 40 kts 88°
2026-04-25 13:20 43.12311 -77.66419 546 ft 31 kts 88°
2026-04-25 13:20 43.12327 -77.66129 543 ft 30 kts 86°
2026-04-25 13:21 43.12336 -77.65839 541 ft 29 kts 88°
2026-04-25 13:21 43.12324 -77.65626 538 ft 13 kts 134°
2026-04-25 13:21 43.12241 -77.65604 537 ft 9 kts 170°
2026-04-25 13:21 43.12233 -77.65603 537 ft 0 kts 179°
2026-04-25 13:22 43.12232 -77.65603 537 ft 0 kts 174°
2026-04-25 13:22 43.12178 -77.65598 537 ft 13 kts 175°
2026-04-25 13:22 43.12090 -77.65688 537 ft 18 kts 240°
2026-04-25 13:23 43.11991 -77.65743 536 ft 7 kts 231°
2026-04-25 13:23 43.11988 -77.65752 536 ft 0 kts 263°